Tracking 25963 objects as of 12-Aug-2022
HD Live streaming from Space Station
objects crossing your sky now

ONEWEB-0446

Track ONEWEB-0446 now!
10-day predictions
ONEWEB-0446 is classified as:


NORAD ID: 51640
Int'l Code: 2022-012U
Perigee: 1,227.4 km
Apogee: 1,230.2 km
Inclination: 87.9 °
Period: 109.9 minutes
Semi major axis: 7599 km
RCS: Unknown
Launch date: February 10, 2022
Source: United Kingdom (UK)
Launch site: FRENCH GUIANA (FRGUI)
aabbcc
Your satellite tracking list
Your tracking list is empty




NASA's NSSDC Master Catalog

Two Line Element Set (TLE):
1 51640U 22012U   22223.91667824 -.00043591  00000-0 -12548+0 0  9990
2 51640  87.8864 315.6872 0001850  91.7885  44.0140 13.10383760 26589
Source of the keplerian elements: AFSPC